Location: Brantford
(43.1330°N, 80.2670°W)
Time: 00:06:42
(UTC-05:00)

Tiros 1 - All Passes

Search period start: 20 November 2019 00:00
Search period end: 30 November 2019 00:00
Orbit: 630 x 664 km, 48.4° (Epoch: 18 November)

Date Brightness Start Highest point End Pass type
(mag) Time Alt. Az. Time Alt. Az. Time Alt. Az.
20 Nov - 12:15:14 10° SSE 12:16:47 12° SE 12:18:20 10° ESE daylight
20 Nov - 13:53:42 10° SW 13:58:12 55° SSE 14:02:44 10° ENE daylight
20 Nov - 15:35:56 10° W 15:40:28 53° NNW 15:45:02 10° ENE daylight
20 Nov - 17:18:46 10° WNW 17:23:13 44° N 17:27:41 10° E visible
20 Nov - 19:01:04 10° WNW 19:05:44 89° NNE 19:10:26 10° ESE visible
20 Nov - 20:43:50 10° W 20:47:32 23° SW 20:51:14 10° S visible
21 Nov - 12:38:36 10° SSW 12:42:23 26° SE 12:46:12 10° E daylight
21 Nov - 14:19:36 10° WSW 14:24:13 83° NNW 14:28:53 10° ENE daylight
21 Nov - 16:02:22 10° WNW 16:06:47 44° N 16:11:15 10° ENE daylight
21 Nov - 17:44:58 10° WNW 17:49:31 56° NNE 17:54:07 10° E visible
21 Nov - 19:27:14 10° WNW 19:31:44 50° SW 19:36:16 10° SE visible
21 Nov - 21:12:31 10° WSW 21:13:07 10° SW 21:13:44 10° SW visible
22 Nov - 11:25:59 10° SE 11:26:49 10° SE 11:27:39 10° ESE daylight
22 Nov - 13:03:43 10° SW 13:08:12 52° SE 13:12:41 10° ENE daylight
22 Nov - 14:45:53 10° W 14:50:25 55° NNW 14:54:59 10° ENE daylight
22 Nov - 16:28:43 10° WNW 16:33:09 44° N 16:37:37 10° ENE daylight
22 Nov - 18:11:03 10° WNW 18:15:43 85° NNE 18:20:23 10° ESE visible
22 Nov - 19:53:45 10° W 19:57:32 25° SW 20:01:22 10° SSE visible
23 Nov - 11:48:43 10° S 11:52:24 24° SE 11:56:05 10° E daylight
23 Nov - 13:29:34 10° WSW 13:34:12 87° NNW 13:38:51 10° ENE daylight
23 Nov - 15:12:18 10° WNW 15:16:44 44° N 15:21:11 10° ENE daylight
23 Nov - 16:54:56 10° WNW 16:59:28 54° NNE 17:04:03 10° E daylight
23 Nov - 18:37:12 10° WNW 18:41:44 54° SSW 18:46:17 10° SE visible
23 Nov - 20:21:44 10° WSW 20:23:09 11° SW 20:24:35 10° SSW visible
24 Nov - 12:13:45 10° SW 12:18:11 48° SE 12:22:38 10° ENE daylight
24 Nov - 13:55:49 10° W 14:00:23 57° NNW 14:04:57 10° ENE daylight
24 Nov - 15:38:40 10° WNW 15:43:06 43° N 15:47:32 10° ENE daylight
24 Nov - 17:21:02 10° WNW 17:25:41 81° NNE 17:30:20 10° ESE visible
24 Nov - 19:03:39 10° W 19:07:33 27° SW 19:11:28 10° SSE visible
25 Nov - 10:58:52 10° S 11:02:25 22° SE 11:05:58 10° E daylight
25 Nov - 12:39:32 10° WSW 12:44:10 89° SSE 12:48:49 10° ENE daylight
25 Nov - 14:22:14 10° W 14:26:41 45° N 14:31:08 10° ENE daylight
25 Nov - 16:04:54 10° WNW 16:09:25 52° NNE 16:13:58 10° E daylight
25 Nov - 17:47:09 10° WNW 17:51:43 58° SSW 17:56:17 10° SE visible
25 Nov - 19:31:16 10° WSW 19:33:11 12° SW 19:35:05 10° SSW visible
26 Nov - 11:23:47 10° SW 11:28:11 45° SE 11:32:35 10° ENE daylight
26 Nov - 13:05:46 10° W 13:10:20 59° NNW 13:14:55 10° ENE daylight
26 Nov - 14:48:37 10° WNW 14:53:02 43° N 14:57:28 10° ENE daylight
26 Nov - 16:31:00 10° WNW 16:35:39 77° NNE 16:40:17 10° ESE daylight
26 Nov - 18:13:34 10° W 18:17:33 29° SW 18:21:33 10° SSE visible
27 Nov - 10:09:01 10° S 10:12:26 20° SE 10:15:50 10° E daylight
27 Nov - 11:49:30 10° WSW 11:54:09 84° SSE 11:58:47 10° ENE daylight
27 Nov - 13:32:10 10° W 13:36:38 45° N 13:41:05 10° ENE daylight
27 Nov - 15:14:52 10° WNW 15:19:23 51° NNE 15:23:54 10° E daylight
27 Nov - 16:57:07 10° WNW 17:01:42 62° SSW 17:06:17 10° SE daylight
27 Nov - 18:40:56 10° WSW 18:43:12 13° SW 18:45:28 10° SSW visible
28 Nov - 10:33:49 10° SSW 10:38:10 42° SE 10:42:32 10° ENE daylight
28 Nov - 12:15:42 10° W 12:20:18 61° NNW 12:24:53 10° ENE daylight
28 Nov - 13:58:34 10° WNW 14:02:59 43° N 14:07:24 10° ENE daylight
28 Nov - 15:40:58 10° WNW 15:45:37 73° NNE 15:50:14 10° ESE daylight
28 Nov - 17:23:29 10° WNW 17:27:33 31° SW 17:31:38 10° SSE visible
29 Nov - 09:19:12 10° S 09:22:27 19° SE 09:25:41 10° E daylight
29 Nov - 10:59:28 10° WSW 11:04:07 80° SSE 11:08:45 10° ENE daylight
29 Nov - 12:42:06 10° W 12:46:34 46° N 12:51:02 10° ENE daylight
29 Nov - 14:24:49 10° WNW 14:29:20 49° NNE 14:33:50 10° E daylight
29 Nov - 16:07:05 10° WNW 16:11:41 66° SSW 16:16:16 10° SE daylight
29 Nov - 17:50:40 10° W 17:53:13 15° SW 17:55:47 10° SSW visible
